Regional Weather Roundup
Issued by NWS

Home | Current Version | Previous Version | Text Only | Print | Product List | Glossary Off
Versions: 1 2 3 4 5 6 7 8 9 10 11 12 13 14 15 16 17 18 19 20 21 22 23 24 25 26 27

000
ASUS45 KSLC 211810
RWRUT

UTAH REGIONAL WEATHER ROUNDUP
NATIONAL WEATHER SERVICE SALT LAKE CITY UT
1100 AM MST TUE FEB 21 2017

UTZ001>011-023>025-211900-

NORTHERN UTAH

CITY           SKY/WX    TMP DP  RH WIND       PRES   REMARKS
BRIGHAM CITY     N/A     54  41  61 SW14      30.01F
HILL AFB       NOT AVBL
LOGAN          CLOUDY    56  39  53 S25G36    29.99F
OGDEN          SUNNY     58  38  47 S22       30.02S
SALT LAKE CITY MOSUNNY   59  38  45 S35G45    30.02F
TOOELE VALLEY  SUNNY     59  39  47 S31G41    30.03R
WENDOVER       SUNNY     59  32  36 SW22      29.99F
HEBER CITY     CLOUDY    52  34  50 SW14      30.11S
WEST JORDAN    SUNNY     58  45  62 S30G43    30.05S

$$

UTZ011>015-024>027-211900-

CENTRAL/NORTHEAST UTAH

CITY           SKY/WX    TMP DP  RH WIND       PRES   REMARKS
PROVO AIRPORT  PTSUNNY   54  36  50 SW25      30.13R
MOAB/CANYONLAN CLOUDY    56  41  57 SE10      30.23S
DELTA          SUNNY     54  37  54 S37G47    30.14F
PRICE          CLOUDY    43  38  82 E6        30.23F
RICHFIELD      SUNNY     59  32  36 SW22      30.18F
ROOSEVELT      SUNNY     54  36  50 SW16G23   30.19F
VERNAL         SUNNY     49  37  63 SW14      30.17F

$$

UTZ013>016-019>022-027-211900-

SOUTHERN UTAH

CITY           SKY/WX    TMP DP  RH WIND       PRES   REMARKS
BRYCE CANYON   CLOUDY    37  35  92 SE7       30.35S WCI  32
CEDAR CITY     PTSUNNY   52  36  54 SW29G36   30.23F
MILFORD        CLOUDY    53  40  61 S21       30.22F
ST GEORGE      CLOUDY    55  46  71 CALM      30.29S
HANKSVILLE     PTSUNNY   59  37  44 CALM      30.24F
KANAB          PTSUNNY   55  43  62 S10       30.37S
BLANDING       MOSUNNY   50  36  60 SE7       30.44S

$$

REGIONAL REPORTS     COLORADO/ARIZONA

CITY           SKY/WX    TMP DP  RH WIND       PRES   REMARKS
CRAIG, CO      CLOUDY    54  32  43 SW21G29   30.18F
GRAND JUNCTION SUNNY     56  37  49 SE8       30.24F
RIFLE, CO      SUNNY     53  33  46 CALM      30.24F
MONTROSE, CO   SUNNY     55  32  41 VRB6      30.30F
CORTEZ, CO     SUNNY     53  37  54 SW9       30.37F
COLORADO CITY    N/A     55  43  62 S3        30.35F
PAGE, AZ       SUNNY     54  38  54 N5        30.31S
GRAND CANYON   MOSUNNY   51  40  65 SW14G20   30.41S
KINGMAN, AZ    PTSUNNY   59  39  47 SW7       30.33F
FLAGSTAFF, AZ  SUNNY     52  38  58 W8        30.44R

$$

REGIONAL REPORTS    NEVADA/IDAHO/WYOMING

CITY           SKY/WX    TMP DP  RH WIND       PRES   REMARKS
LAS VEGAS, NV  CLOUDY    67  32  27 SW12G21   30.22S
ELY, NY        SUNNY     48  32  53 S31G43    30.10S
ELKO, NV       PTSUNNY   53  33  46 SW21G29   29.97F
POCATELLO, ID  LGT RAIN  45  39  79 NW10      29.96S
BURLEY, ID     MOSUNNY   54  38  54 W17G24    29.94R
FORT BRIDGER,    N/A     47  30  53 SW20G25   30.09S
EVANSTON, WY   MOSUNNY   41  30  65 SW29      30.05S
ROCK SPRINGS,  SUNNY     49  30  48 S23G29    30.05F
KEMMERER, WY     N/A     41  32  70 SW25      30.05S

$$




USA.gov is the U.S. government's official web portal to all federal, state and local government web resources and services.